| time (UTC) | temp C | wind direction | speed KPH | gust KPH | rain 1hr cm | rain 24hr cm | rain mn cm | humidity % | barometer mb |
| 20260906071601 | 19 | 5 | 0.0 | 0.0 | 0.00 | 0.33 | 0.00 | 97 | 1010.7 |
| 20260906070004 | 19 | 5 | 0.0 | 0.0 | 0.00 | 0.33 | 0.00 | 97 | 1010.7 |
| 20260906064532 | 19 | 5 | 0.0 | 0.0 | 0.00 | 0.33 | 0.00 | 96 | 1010.7 |
| 20260906063039 | 19 | 5 | 0.0 | 0.0 | 0.00 | 0.33 | 0.00 | 96 | 1010.9 |
| 20260906061552 | 19 | 5 | 0.0 | 0.0 | 0.00 | 0.33 | 0.00 | 96 | 1011.1 |
| 20260906060004 | 19 | 5 | 0.0 | 0.0 | 0.00 | 0.33 | 0.00 | 96 | 1011.3 |
| 20260906054608 | 19 | 5 | 0.0 | 0.0 | 0.00 | 0.33 | 0.00 | 96 | 1011.2 |
| 20260906053108 | 19 | 5 | 0.0 | 0.0 | 0.00 | 0.33 | 0.00 | 95 | 1011.4 |
| 20260906051506 | 19 | 5 | 0.0 | 0.0 | 0.00 | 0.33 | 0.00 | 95 | 1011.7 |
| 20260906050035 | 19 | 5 | 0.0 | 0.0 | 0.00 | 0.33 | 0.00 | 95 | 1011.7 |
| 20260906044550 | 19 | 5 | 0.0 | 0.0 | 0.00 | 0.33 | 0.00 | 95 | 1011.7 |
| 20260906043052 | 20 | 5 | 0.0 | 0.0 | 0.00 | 0.33 | 0.00 | 95 | 1011.8 |
| 20260906041556 | 20 | 5 | 0.0 | 0.0 | 0.00 | 0.33 | 0.00 | 95 | 1011.7 |
| 20260906040135 | 20 | 5 | 0.0 | 0.0 | 0.00 | 0.33 | 0.00 | 95 | 1011.7 |
| 20260906034604 | 20 | 5 | 0.0 | 0.0 | 0.00 | 0.33 | 0.33 | 94 | 1011.7 |
| 20260906033018 | 20 | 5 | 0.0 | 0.0 | 0.00 | 0.33 | 0.33 | 94 | 1011.9 |
| 20260906031510 | 20 | 5 | 0.0 | 0.0 | 0.00 | 0.33 | 0.33 | 95 | 1012.0 |
| 20260906030016 | 20 | 5 | 0.0 | 0.0 | 0.00 | 0.33 | 0.33 | 94 | 1012.1 |
| 20260906024535 | 20 | 5 | 0.0 | 0.0 | 0.00 | 0.33 | 0.33 | 94 | 1011.7 |
| 20260906023102 | 21 | 5 | 0.0 | 0.0 | 0.00 | 0.33 | 0.33 | 94 | 1011.5 |
| 20260906021558 | 21 | 5 | 0.0 | 0.0 | 0.00 | 0.33 | 0.33 | 94 | 1011.4 |
| 20260906020101 | 21 | 5 | 0.0 | 0.0 | 0.00 | 0.33 | 0.33 | 93 | 1010.9 |
| 20260906014605 | 21 | 5 | 0.0 | 0.0 | 0.00 | 0.33 | 0.33 | 93 | 1010.8 |
| 20260906013020 | 21 | 5 | 0.0 | 0.0 | 0.00 | 0.33 | 0.33 | 92 | 1010.9 |
| 20260906011550 | 21 | 5 | 0.0 | 0.0 | 0.00 | 0.33 | 0.33 | 92 | 1010.9 |
| 20260906010052 | 22 | 5 | 0.0 | 0.0 | 0.00 | 0.33 | 0.33 | 91 | 1010.7 |
| 20260906004505 | 22 | 5 | 0.0 | 0.0 | 0.00 | 0.33 | 0.33 | 91 | 1010.8 |
| 20260906003030 | 22 | 5 | 0.0 | 0.0 | 0.00 | 0.33 | 0.33 | 89 | 1010.3 |
| 20260906001546 | 23 | 5 | 0.0 | 0.0 | 0.00 | 0.33 | 0.33 | 88 | 1010.4 |
| 20260906000050 | 23 | 5 | 0.0 | 0.0 | 0.00 | 0.33 | 0.33 | 86 | 1010.3 |
| 20260905234557 | 23 | 5 | 0.0 | 0.0 | 0.00 | 0.33 | 0.33 | 85 | 1010.2 |
| 20260905233017 | 24 | 5 | 0.0 | 0.0 | 0.00 | 0.33 | 0.33 | 85 | 1010.2 |
| 20260905231542 | 25 | 5 | 0.0 | 0.0 | 0.00 | 0.33 | 0.33 | 83 | 1010.0 |
| 20260905230046 | 25 | 5 | 0.0 | 0.0 | 0.00 | 0.33 | 0.33 | 82 | 1009.9 |
| 20260905224610 | 25 | 5 | 0.0 | 4.8 | 0.00 | 0.33 | 0.33 | 79 | 1009.8 |
| 20260905223100 | 25 | 5 | 0.0 | 0.0 | 0.00 | 0.33 | 0.33 | 79 | 1009.7 |
| 20260905221558 | 26 | 5 | 0.0 | 0.0 | 0.00 | 0.33 | 0.33 | 81 | 1010.0 |
| 20260905220050 | 25 | 5 | 0.0 | 0.0 | 0.00 | 0.33 | 0.33 | 77 | 1010.0 |
| 20260905214558 | 25 | 5 | 0.0 | 6.4 | 0.00 | 0.33 | 0.33 | 78 | 1010.1 |
| 20260905213103 | 25 | 5 | 0.0 | 4.8 | 0.00 | 0.33 | 0.33 | 79 | 1010.3 |
| 20260905211601 | 24 | 5 | 0.0 | 0.0 | 0.00 | 0.33 | 0.33 | 83 | 1010.6 |
| 20260905210105 | 24 | 5 | 0.0 | 0.0 | 0.00 | 0.33 | 0.33 | 85 | 1010.7 |
| 20260905204604 | 23 | 5 | 0.0 | 1.6 | 0.00 | 0.33 | 0.33 | 87 | 1010.7 |
| 20260905203006 | 22 | 5 | 0.0 | 0.0 | 0.00 | 0.33 | 0.33 | 89 | 1010.7 |
| 20260905201534 | 22 | 5 | 0.0 | 0.0 | 0.00 | 0.33 | 0.33 | 91 | 1010.8 |
| 20260905200048 | 22 | 5 | 0.0 | 0.0 | 0.00 | 0.33 | 0.33 | 92 | 1011.4 |
| 20260905194551 | 21 | 5 | 0.0 | 0.0 | 0.00 | 0.33 | 0.33 | 93 | 1011.7 |
| 20260905193111 | 21 | 5 | 0.0 | 0.0 | 0.00 | 0.33 | 0.33 | 94 | 1011.7 |
| 20260905191520 | 21 | 5 | 0.0 | 0.0 | 0.23 | 0.33 | 0.33 | 93 | 1011.7 |
| 20260905190004 | 21 | 5 | 0.0 | 0.0 | 0.25 | 0.33 | 0.33 | 93 | 1011.6 |
| 20260905184526 | 21 | 5 | 0.0 | 0.0 | 0.25 | 0.33 | 0.33 | 93 | 1011.8 |
| 20260905183024 | 21 | 5 | 0.0 | 6.4 | 0.25 | 0.33 | 0.33 | 89 | 1011.6 |
| 20260905181543 | 22 | 5 | 1.6 | 4.8 | 0.03 | 0.10 | 0.10 | 87 | 1012.2 |
| 20260905180104 | 21 | 5 | 0.0 | 1.6 | 0.00 | 0.08 | 0.08 | 88 | 1012.1 |
| 20260905174601 | 21 | 5 | 0.0 | 6.4 | 0.00 | 0.08 | 0.08 | 84 | 1011.8 |
| 20260905173130 | 22 | 5 | 0.0 | 0.0 | 0.08 | 0.08 | 0.08 | 89 | 1012.0 |
| 20260905171609 | 22 | 5 | 0.0 | 0.0 | 0.08 | 0.08 | 0.08 | 88 | 1012.0 |
| 20260905170026 | 22 | 5 | 0.0 | 4.8 | 0.08 | 0.08 | 0.08 | 83 | 1012.0 |
| 20260905164558 | 25 | 5 | 0.0 | 0.0 | 0.08 | 0.08 | 0.08 | 82 | 1011.8 |
| 20260905163127 | 27 | 5 | 0.0 | 1.6 | 0.00 | 0.00 | 0.00 | 77 | 1011.9 |
| 20260905161615 | 28 | 5 | 0.0 | 4.8 | 0.00 | 0.00 | 0.00 | 72 | 1011.9 |
| 20260905160056 | 28 | 5 | 0.0 | 4.8 | 0.00 | 0.00 | 0.00 | 72 | 1012.0 |
| 20260905154611 | 27 | 5 | 0.0 | 0.0 | 0.00 | 0.00 | 0.00 | 75 | 1012.1 |
| 20260905153055 | 26 | 5 | 0.0 | 0.0 | 0.00 | 0.00 | 0.00 | 78 | 1012.1 |
| 20260905151604 | 25 | 5 | 0.0 | 0.0 | 0.00 | 0.00 | 0.00 | 83 | 1012.2 |
| 20260905150010 | 24 | 5 | 0.0 | 0.0 | 0.00 | 0.00 | 0.00 | 87 | 1012.3 |
| 20260905144534 | 23 | 5 | 0.0 | 0.0 | 0.00 | 0.00 | 0.00 | 90 | 1012.3 |
| 20260905143048 | 22 | 5 | 0.0 | 0.0 | 0.00 | 0.00 | 0.00 | 94 | 1012.6 |
| 20260905141555 | 21 | 5 | 0.0 | 0.0 | 0.00 | 0.00 | 0.00 | 96 | 1012.7 |
| 20260905140058 | 21 | 5 | 0.0 | 0.0 | 0.00 | 0.00 | 0.00 | 97 | 1012.8 |
| 20260905134605 | 20 | 5 | 0.0 | 0.0 | 0.00 | 0.00 | 0.00 | 97 | 1012.9 |
| 20260905133029 | 20 | 5 | 0.0 | 0.0 | 0.00 | 0.00 | 0.00 | 97 | 1013.2 |
| 20260905131542 | 20 | 5 | 0.0 | 0.0 | 0.00 | 0.00 | 0.00 | 97 | 1013.3 |
| 20260905130050 | 19 | 5 | 0.0 | 0.0 | 0.00 | 0.00 | 0.00 | 97 | 1013.3 |
| 20260905124544 | 19 | 5 | 0.0 | 0.0 | 0.00 | 0.00 | 0.00 | 97 | 1013.4 |
| 20260905123107 | 19 | 5 | 0.0 | 0.0 | 0.00 | 0.00 | 0.00 | 97 | 1013.3 |
| 20260905121506 | 18 | 5 | 0.0 | 0.0 | 0.00 | 0.00 | 0.00 | 97 | 1013.3 |
| 20260905120024 | 18 | 5 | 0.0 | 0.0 | 0.00 | 0.00 | 0.00 | 97 | 1012.9 |
| 20260905114551 | 18 | 5 | 0.0 | 0.0 | 0.00 | 0.00 | 0.00 | 97 | 1012.8 |
| 20260905113045 | 18 | 5 | 0.0 | 0.0 | 0.00 | 0.00 | 0.00 | 96 | 1012.8 |
| 20260905111545 | 18 | 5 | 0.0 | 0.0 | 0.00 | 0.00 | 0.00 | 96 | 1012.6 |
| 20260905110058 | 18 | 5 | 0.0 | 0.0 | 0.00 | 0.00 | 0.00 | 96 | 1012.2 |
| 20260905104604 | 18 | 5 | 0.0 | 0.0 | 0.00 | 0.00 | 0.00 | 96 | 1012.2 |
| 20260905103058 | 18 | 5 | 0.0 | 0.0 | 0.00 | 0.00 | 0.00 | 96 | 1012.1 |
| 20260905101601 | 18 | 5 | 0.0 | 0.0 | 0.00 | 0.00 | 0.00 | 96 | 1012.0 |
| 20260905100122 | 18 | 5 | 0.0 | 0.0 | 0.00 | 0.00 | 0.00 | 96 | 1011.9 |
| 20260905094503 | 18 | 5 | 0.0 | 0.0 | 0.00 | 0.00 | 0.00 | 96 | 1011.9 |
| 20260905093032 | 18 | 5 | 0.0 | 0.0 | 0.00 | 0.00 | 0.00 | 95 | 1011.9 |
| 20260905091556 | 18 | 5 | 0.0 | 0.0 | 0.00 | 0.00 | 0.00 | 95 | 1012.0 |
| 20260905090054 | 18 | 5 | 0.0 | 0.0 | 0.00 | 0.00 | 0.00 | 95 | 1012.2 |
| 20260905084607 | 18 | 5 | 0.0 | 0.0 | 0.00 | 0.00 | 0.00 | 95 | 1012.3 |
| 20260905083031 | 19 | 5 | 0.0 | 0.0 | 0.00 | 0.00 | 0.00 | 95 | 1012.4 |
| 20260905081544 | 18 | 5 | 0.0 | 0.0 | 0.00 | 0.00 | 0.00 | 95 | 1012.6 |
| 20260905080049 | 18 | 5 | 0.0 | 0.0 | 0.00 | 0.00 | 0.00 | 95 | 1012.7 |
| 20260905074556 | 18 | 5 | 0.0 | 0.0 | 0.00 | 0.00 | 0.00 | 95 | 1012.8 |
| 20260905073057 | 19 | 5 | 0.0 | 0.0 | 0.00 | 0.00 | 0.00 | 95 | 1012.9 |